Home   Weather   Böblingen   Past weeks

Flag for Germany Past Weather in Böblingen, Baden-Württemberg, Germany — Yesterday and Last 2 Weeks

46 °F

Passing clouds.

Feels Like: 43 °F
Forecast: 40 / 46 °F
Wind: 7 mph from Southwest

Location: Stuttgart-Echterdingen

Current Time: Oct 20, 2016 at 9:48:23 PM

Latest Report: Oct 20, 2016 at 9:20 PM

Visibility: N/A

Pressure: 29.89 "Hg

Humidity: 82%

Dew Point: 41 °F

Location of BöblingenLocation

Past Weather in Böblingen — Graph


Böblingen Temperature Yesterday

Maximum temperature yesterday: 52 °F (at 12:20 AM)
Minimum temperature yesterday: 45 °F (at 8:20 AM)
Average temperature yesterday: 49 °F

High & Low Weather Summary for the Past Weeks

High68 °F (Oct 16, 3:50 PM)100% (Oct 7, 3:20 AM)30.30 "Hg (Oct 7, 3:20 AM)
Low36 °F (Oct 10, 3:50 AM)47% (Oct 12, 3:50 PM)29.65 "Hg (Oct 14, 5:50 PM)
Average47 °F84%30.07 "Hg
* Reported Oct 5 8:20 PM — Oct 20 8:20 PM, Böblingen, Weather by CustomWeather, © 2016

Note: Actual official high and low records may vary slightly from our data, if they occured in-between our weather recording intervals... More about our weather records


Böblingen Weather History for the Previous 24 Hours

Scroll right to see more
Time TempWeatherWind HumidityBarometerVisibility
8:20 PM
Thu, Oct 20
46 °FPartly cloudy.8 mph87%29.92 "HgN/A
7:50 PM48 °FPartly cloudy.8 mph82%29.92 "HgN/A
7:20 PM48 °FPartly cloudy.8 mph82%29.92 "HgN/A
6:50 PM48 °FPartly cloudy.9 mph82%29.92 "HgN/A
6:20 PM48 °FPartly sunny.8 mph82%29.92 "HgN/A
5:50 PM48 °FPartly sunny.9 mph76%29.92 "HgN/A
5:20 PM50 °FBroken clouds.8 mph71%29.92 "HgN/A
4:50 PM50 °FBroken clouds.10 mph76%29.92 "HgN/A
4:20 PM50 °FBroken clouds.10 mph76%29.92 "HgN/A
3:50 PM52 °FBroken clouds.13 mph67%29.92 "HgN/A
3:20 PM50 °FBroken clouds.13 mph71%29.92 "HgN/A
2:50 PM50 °FPartly sunny.14 mph71%29.92 "HgN/A
2:20 PM50 °FBroken clouds.18 mph71%29.92 "HgN/A
1:50 PM52 °FBroken clouds.10 mph72%29.92 "HgN/A
1:20 PM52 °FScattered showers. Broken clouds.13 mph72%29.92 "HgN/A
12:50 PM50 °FBroken clouds.10 mph76%29.95 "HgN/A
12:20 PM50 °FPartly sunny.12 mph76%29.95 "HgN/A
11:50 AM50 °FPartly sunny.7 mph76%29.95 "HgN/A
11:20 AM48 °FBroken clouds.9 mph82%29.95 "HgN/A
10:50 AM48 °FBroken clouds.12 mph82%29.95 "HgN/A
10:20 AM48 °FBroken clouds.8 mph76%29.95 "HgN/A
9:50 AM46 °FPartly sunny.6 mph87%29.95 "HgN/A
9:20 AM46 °FPartly sunny.8 mph87%29.95 "HgN/A
8:50 AM45 °FBroken clouds.6 mph93%29.95 "HgN/A
8:20 AM45 °FPartly sunny.7 mph93%29.95 "HgN/A
7:50 AM45 °FLight rain. Passing clouds.9 mph93%29.95 "HgN/A
7:20 AM45 °FPassing clouds.8 mph93%29.95 "HgN/A
6:50 AM45 °FPassing clouds.6 mph93%29.95 "HgN/A
6:20 AM45 °FPassing clouds.5 mph93%29.95 "HgN/A
5:50 AM45 °FLight rain. Passing clouds.3 mph93%29.95 "HgN/A
5:20 AM45 °FPassing clouds.3 mph93%29.98 "HgN/A
4:50 AM45 °FLight rain. Passing clouds.6 mph93%29.98 "HgN/A
4:20 AM45 °FLight rain. Passing clouds.3 mph93%29.98 "HgN/A
3:50 AM45 °FLight rain. Passing clouds.2 mph93%29.98 "HgN/A
3:20 AM45 °FSprinkles. Passing clouds.3 mph93%29.98 "HgN/A
2:50 AM46 °FSprinkles. Passing clouds.3 mph87%30.01 "HgN/A
2:20 AM46 °FSprinkles. Passing clouds.5 mph87%30.01 "HgN/A
1:50 AM46 °FSprinkles. Passing clouds.7 mph82%30.01 "HgN/A
1:20 AM46 °FPassing clouds.7 mph82%30.01 "HgN/A
12:50 AM48 °FPassing clouds.8 mph76%30.01 "HgN/A
12:20 AM46 °FPartly cloudy.10 mph82%30.01 "HgN/A
11:50 PM
Wed, Oct 19
48 °FPassing clouds.7 mph76%30.01 "HgN/A
11:20 PM48 °FPassing clouds.8 mph71%30.01 "HgN/A
10:50 PM48 °FPassing clouds.5 mph76%30.01 "HgN/A
10:20 PM48 °FPartly cloudy.3 mph71%30.01 "HgN/A
9:50 PM48 °FPartly cloudy.5 mph71%30.01 "HgN/A
9:20 PM48 °FPassing clouds.5 mph71%30.01 "HgN/A
Weather by CustomWeather, © 2016

See weather overviewHow to use our weather pages